Voltar ao catálogo

LEMUR 2 AHMED-ASRAR

AtivoCiênciaSSO
NORAD 60576·PAYLOAD·🇺🇸 United States

Lançado Aug 16, 2024 de Vandenberg Space Force Base

Loading…

Próximas Passagens (próximas 24 horas)

TLE

AtualizadoSource: Space-Track

Época: Sep 13, 2026, 19:33 UTC

1 60576U 24149DN  26256.81477892  .00007228  00000-0  39711-3 0  9994
2 60576  97.6970 342.7294 0003043  74.2346 285.9221 15.14414802113971

Acompanhe LEMUR 2 AHMED-ASRAR em tempo real com AllMySat

Download on the App Store